THORAD AGENA D DEB, 4935

Orbit data source: Space-Track

THORAD AGENA D DEB, 4935 is space debris in SSO originally from a launch on Wed, 08 Apr 1970 UTC launched from the Air Force Western Test Range (AFWTR). Debris objects in space refer to the collection of defunct objects orbiting the Earth. Examples of debris include non-operational satellites, rocket bodies, and fragments generated from explosions, collisions, or faulty payload assembly.

Loading next visibility...
Identifier
4935, 1970-025GB
Orbit
SSO
Country
Flag of USUS
Related business
Manufacturer
Unknown
Mission
Spacecraft
Bus & Motor
Unknown
Mass
Unknown
Launch date (UTC)
1970-04-08 (56 years ago)
Launch vehicle
Unknown
Launch site
Air Force Western Test Range (AFWTR)
Object type
Payload
Rocket body
Debris
Shape & HBR
Unknown shape, 0.1 m
Radar Cross Section
Medium (>0.1 m² and <1 m²)

Expand to show TLE details & history
Last TLE update: 1 day ago

TLE from 1 day ago
0 THORAD AGENA D DEB
1 04935U 70025GB  26207.35728946  .00000674  00000-0  60519-3 0  9997
2 04935  99.8596 337.3745 0062208 265.3112 117.1177 13.87348366822476
Epoch: 2026-07-26T08:34Z
TLE epoch observation values (Epoch: 2026-07-26T08:34:29.809Z)
Latitude
22.7195°
Longitude
-99.45756°
Altitude
961.592 km
Speed
7.362 km/s
True Right ascension
22h 12m 53s
True Declination
22° 36' 02"
Sunlit
Object was in full shadow at epoch
Visualization orbit readout
Latitude
Unknown
Longitude
Unknown
Altitude
Unknown
Speed
Unknown
Apparent Right ascension
Unknown
Apparent Declination
Unknown
Sunlit
N/A
Visualization observer readout
Local Sidereal Time
01:35:41
Azimuth
Unknown
Elevation
Unknown
Doppler factor
Unknown
Orbital elements
Apogee altitude
980.693 km
Perigee altitude
889.703 km
Semi-major axis
7,313.335 km
Eccentricity
0.00622
Inclination
99.8596°
RAAN
337.3745°
Arg. of periapsis
265.3112°
True anomaly
117.74993°
Mean anomaly
117.1177°
Eccentric anomaly
117.43404°
Mean motion
3.47032 °/min
Orbital period
103.74 mins
BSTAR
0.00060519
Loading maneuver chart data...
Computing Atmospheric mass density...

Documentation

Showing up to 5 results
|